Location: Im Fang
(46.6019°N, 7.2397°E)
Time: 15:36:37
(UTC+00:00)

DX 1 - Visible Passes

Search period start: 14 May 2021 00:00
Search period end: 24 May 2021 00:00
Orbit: 618 x 631 km, 98.5° (Epoch: 14 May)

Date Brightness Start Highest point End Pass type
(mag) Time Alt. Az. Time Alt. Az. Time Alt. Az.
14 May ? 20:07:02 10° NNW 20:10:22 22° WNW 20:13:40 10° WSW visible
15 May ? 20:26:18 10° NNW 20:28:49 15° WNW 20:31:20 10° W visible
16 May ? 20:46:22 10° NW 20:47:14 11° NW 20:48:05 10° WNW visible
18 May ? 19:45:05 10° N 19:49:01 35° WNW 19:52:55 10° SW visible
19 May ? 20:04:03 10° N 20:07:31 24° WNW 20:10:58 10° WSW visible
20 May ? 20:23:15 10° NNW 20:26:00 17° WNW 20:28:43 10° W visible
21 May ? 20:42:57 10° NW 20:44:24 12° WNW 20:45:51 10° WNW visible
23 May ? 19:42:08 10° N 19:46:09 38° WNW 19:50:08 10° SW visible
